Regional Weather Roundup
Issued by NWS

Home | Current Version | Previous Version | Graphics & Text | Print | Product List | Glossary On
Versions: 1 2 3 4 5 6 7 8 9 10 11 12 13 14 15 16 17 18 19 20 21 22 23 24 25 26 27 28
000
ASUS45 KTFX 231810
RWRMT
MONTANA REGIONAL WEATHER ROUNDUP
NATIONAL WEATHER SERVICE GREAT FALLS MT
1200 PM MDT FRI JUN 23 2017

NOTE: "FAIR" INDICATES FEW OR NO CLOUDS BELOW 12000 FEET WITH NO
SIGNIFICANT WEATHER AND/OR OBSTRUCTIONS TO VISIBILITY.

MTZ001>007-043-231900-
WEST OF THE DIVIDE

CITY           SKY/WX    TMP DP  RH WIND       PRES   REMARKS
KALISPELL      MOSUNNY   66  42  41 CALM      30.24F
MISSOULA       SUNNY     67  36  31 N3        30.25F
BUTTE          SUNNY     62  28  27 N7        30.30F
MULLAN PASS    SUNNY     57  30  35 VRB5      30.32S
ANACONDA         N/A     63  28  27 NE7       30.28F
DEER LODGE       N/A     63  30  29 CALM      30.31F
EUREKA           N/A     66  39  37 MISG      30.24F
HAMILTON         N/A     64  36  34 CALM      30.25F
$$

MTZ008-052>055-231900-
SOUTHWEST MONTANA

CITY           SKY/WX    TMP DP  RH WIND       PRES   REMARKS
BOZEMAN        SUNNY     64  33  31 NE6       30.29F
DILLON         SUNNY     61  29  29 VRB3      30.29F
W YELLOWSTONE  SUNNY     57  23  26 SW5       30.31F
ENNIS          SUNNY     61  28  29 VRB6      30.34S
THREE FORKS      N/A     63  33  32 SW2       30.25F
$$

MTZ009-010-012-014-046-048-049-054-231900-
EAST SLOPES AND CENTRAL MONTANA

CITY           SKY/WX    TMP DP  RH WIND       PRES   REMARKS
CUT BANK       MOSUNNY   59  38  45 MISG      30.30S
GREAT FALLS    SUNNY     63  35  35 NE7       30.29F
MALMSTROM AFB  SUNNY     62  37  38 N7        30.29F
HELENA         SUNNY     67  37  33 VRB6      30.27F
CHOTEAU          N/A     61  37  41 NE5G12    30.31F
$$

MTZ011-013-016-021-045-047-050-051-231900-
NORTH CENTRAL MONTANA

CITY           SKY/WX    TMP DP  RH WIND       PRES   REMARKS
HAVRE          PTSUNNY   64  32  30 NW14G21   30.26F
LEWISTOWN      MOSUNNY   58  35  42 NW6       30.30F
N BAR RANCH      N/A     59  34  38 NW16G22   30.31F
CHINOOK          N/A     64  32  29 NW9G21    30.24F
$$

MTZ017>020-022>027-061-062-231900-
NORTHEAST MONTANA

CITY           SKY/WX    TMP DP  RH WIND       PRES   REMARKS
GLASGOW        PTSUNNY   64  32  30 NW20G30   30.21S
JORDAN           N/A     64  30  27 NW17G26   30.23F
SIDNEY         PTSUNNY   62  35  36 NW21      30.16S
WOLF POINT     PTSUNNY   66  31  27 NW20G30   30.19S
MALTA          MOSUNNY   64  32  29 NW17G25   30.23F
PLENTYWOOD       N/A     57  34  41 NW24G38   30.12F
POPLAR           N/A     61  32  33 NW17G25   30.17F
$$

MTZ028>42-056>058-231900-
SOUTHCENTRAL AND SOUTHEAST MONTANA

CITY           SKY/WX    TMP DP  RH WIND       PRES   REMARKS
BAKER          MOSUNNY   59  31  34 NW20G35   30.21S
BILLINGS       MOSUNNY   65  34  31 N8        30.27F
LIVINGSTON     SUNNY     65  33  30 N7        30.27F
MILES CITY     MOSUNNY   64  28  25 NW13G25   30.23F
BIG TIMBER     SUNNY     63  36  36 S7        30.30F
FORSYTH          N/A     61  30  31 NW12G26   30.24F
ROUNDUP          N/A     64  29  27 NW8       30.16F
$$

REGIONAL REPORTS...DAKOTAS

CITY           SKY/WX    TMP DP  RH WIND       PRES   REMARKS
WILLISTON      SUNNY     64  33  31 NW28G40   30.14R
MINOT          PTSUNNY   62  38  40 W24G35    30.03S
DICKINSON      CLOUDY    62  28  27 NW23G33   30.11F
BEACH          PTSUNNY   59  30  33 NW23      30.21F
CROSBY           N/A     59  36  41 NW28G36   30.10S
TIOGA          PTSUNNY   57  36  44 NW30      30.11R
WATFORD CITY     N/A     59  36  41 NW26G33   30.11F
BISMARCK       MOSUNNY   62  36  37 NW22G31   30.07S
GRAND FORKS    CLOUDY    63  49  60 NW22G28   29.88S
FARGO          CLOUDY    63  49  60 NW23G29   29.89S
BUFFALO SD       N/A     63  30  28 NW29G40   30.11S
RAPID CITY     SUNNY     65  35  33 N23G32    30.18F
$$

REGIONAL REPORTS...WYOMING/IDAHO/WASHINGTON

CITY           SKY/WX    TMP DP  RH WIND       PRES   REMARKS
GILLETTE       SUNNY     63  32  31 NW20G28   30.25S
SHERIDAN       SUNNY     64  35  34 N21       30.27F
BUFFALO WY     MOSUNNY   61  33  35 N23G35    30.28S
CODY           SUNNY     60  22  23 NE7       30.30F
YELLOWSTONE LA   N/A     53  27  36 VRB5      30.36S
IDAHO FALLS    SUNNY     68  23  18 NE9       30.25F
SALMON         SUNNY     64  34  32 CALM      30.24F
BOISE          SUNNY     71  36  27 W7        30.20S
SPOKANE        MOSUNNY   71  31  22 N8        30.25S
$$

REGIONAL REPORTS...ALBERTA

CITY           SKY/WX    TMP DP  RH WIND       PRES   REMARKS
EDMONTON       MOSUNNY   64  43  45 NW16      30.20S
CALGARY        PTSUNNY   63  34  34 N8        30.28F
LETHBRIDGE     PTSUNNY   63  39  42 VRB12     30.28F
MEDICINE HAT   PTSUNNY   63  37  39 NW16      30.23F
CARDSTON         N/A     59  39  47 N7          N/A
ONEFOUR          N/A     63  36  36 NW16G24     N/A
$$

REGIONAL REPORTS...SASKATCHEWAN

CITY           SKY/WX    TMP DP  RH WIND       PRES   REMARKS
SWIFT CURRENT  PTSUNNY   59  39  47 NW22G29   30.17F
REGINA         PTSUNNY   54  36  50 NW25G33   30.10F
SASKATOON      PTSUNNY   59  36  41 NW18G26   30.12F
CYPRESS HILLS    N/A     52  34  50 NW10G17     N/A
VAL MARIE        N/A     63  32  31 N20G25      N/A
ROCKGLEN         N/A     59  36  41 NW15G24     N/A
ASSINIBOIA       N/A     64  39  39 N15G23      N/A
$$




USA.gov is the U.S. government's official web portal to all federal, state and local government web resources and services.